Tracking 19219 objects as of 18-Jul-2018
HD Live streaming from Space Station
objects crossing your sky now

SL-12 R/B(2)

Track SL-12 R/B(2) now!


NORAD ID: 29673
Int'l Code: 2006-062D
Perigee: 19,059.9 km
Apogee: 19,165.9 km
Inclination: 65.3 °
Period: 674.8 minutes
Semi major axis: 25483 km
RCS: 0.7844 m2 (medium)
Launch date: December 25, 2006
Source: Commonwealth of Independent States (former USSR) (CIS)
Launch site: TYURATAM MISSILE AND SPACE COMPLEX (TTMTR)

Note: This is a ROCKET BODY
aabbcc
Your satellite tracking list
Your tracking list is empty




NASA's NSSDC Master Catalog

Two Line Element Set (TLE):
1 29673U 06062D   18199.03868639 -.00000040  00000-0  00000+0 0  9996
2 29673  65.2652 291.0901 0020808 196.1437 163.2329  2.13404708 90303
Source of the keplerian elements: AFSPC